Location: Ku?niki
(51.4449°N, 17.8974°E)
Time: 16:24:23
(UTC+00:00)

Cosmos 1943 Rocket - Pass Details

Date: 18 September 2020
Orbit: 814 x 842 km, 71.0° (Epoch: 22 October)

Event Time Altitude Azimuth Distance (km) Brightness Sun altitude
Exits shadow 22:35:46 26° 34° (NNE) 1,600 4.0 -37.1°
Drops below altitude 10° 22:38:04 10° 32° (NNE) 2,444 5.1 -37.1°
Sets 22:40:30 0° 31° (NNE) 3,377 6.0 -37.2°
